Baker, MT

5:59 AM MDT on April 19, 2018 (GMT -0600)
Baker Municipal

Weather History for KBHK - May, 2013

Change the Weather History Date:

Tuesday, May 28, 2013

  Actual Average Record
Temperature  
Mean Temperature 59 °F -  
Max Temperature 70 °F 86 °F 84 °F (1999)
Min Temperature 48 °F 49 °F 35 °F (2005)
Degree Days  
Heating Degree Days 6    
Growing Degree Days 9 (Base 50)    
Moisture  
Dew Point 46 °F    
Average Humidity 64    
Maximum Humidity 86    
Minimum Humidity 40    
Precipitation  
Precipitation 0.01 in - - ()
Sea Level Pressure  
Sea Level Pressure 29.68 in    
Wind  
Wind Speed 11 mph (West)    
Max Wind Speed 17 mph    
Max Gust Speed 26 mph    
Visibility 10 miles    
Events      
Averages and records for this station are not official NWS values.
T = Trace of Precipitation, MM = Missing Value Source: NWS Daily Summary

Daily Weather History Graph

Daily Weather History Graph

Search for Another Location

Airport or City:

Astronomy

May. 28, 2013 Rise Set
Actual Time 5:10 AM MDT 8:38 PM MDT
Civil Twilight 4:33 AM MDT 9:15 PM MDT
Nautical Twilight 3:44 AM MDT 10:05 PM MDT
Astronomical Twilight 2:40 AM MDT 11:09 PM MDT
Moon 11:55 PM MDT (5/28) 9:07 AM MDT (5/28)
Length of Visible Light 16h 42m
Length of Day
15h 27m
Waning Gibbous, 82% of the Moon is Illuminated
May 28
Waning Gibbous
May 31
Last Quarter
Jun 8
New
Jun 16
First Quarter
Jun 23
Full

Hourly Weather History & Observations

Time (MDT) Temp. Dew Point Humidity Pressure Visibility Wind Dir Wind Speed Gust Speed Precip Events Conditions
12:51 AM 48.9 °F 45.0 °F 86% 29.71 in 10.0 mi West 11.5 mph - N/A   Clear
1:51 AM 48.9 °F 45.0 °F 86% 29.71 in 10.0 mi West 5.8 mph - N/A   Clear
2:51 AM 48.9 °F 45.0 °F 86% 29.70 in 10.0 mi SW 10.4 mph - N/A   Clear
3:51 AM 48.0 °F 44.1 °F 86% 29.70 in 10.0 mi SSW 9.2 mph - N/A   Clear
4:43 AM 50.0 °F 44.6 °F 82% 29.71 in 10.0 mi SW 12.7 mph - N/A   Mostly Cloudy
4:51 AM 50.0 °F 44.1 °F 80% 29.69 in 10.0 mi SW 13.8 mph - N/A   Scattered Clouds
5:51 AM 51.1 °F 44.1 °F 77% 29.69 in 10.0 mi SW 12.7 mph - N/A   Scattered Clouds
6:51 AM 52.0 °F 45.0 °F 77% 29.71 in 10.0 mi WSW 15.0 mph - N/A   Clear
7:51 AM 55.0 °F 46.0 °F 72% 29.70 in 10.0 mi WSW 15.0 mph - 0.01 in   Clear
8:51 AM 57.9 °F 48.0 °F 70% 29.70 in 10.0 mi West 16.1 mph - N/A   Clear
9:51 AM 61.0 °F 46.0 °F 58% 29.69 in 10.0 mi West 17.3 mph - N/A   Clear
10:51 AM 64.0 °F 46.9 °F 54% 29.68 in 10.0 mi West 16.1 mph 26.5 mph N/A   Partly Cloudy
11:51 AM 64.9 °F 44.1 °F 47% 29.68 in 10.0 mi West 13.8 mph - N/A   Clear
12:51 PM 66.0 °F 46.0 °F 48% 29.68 in 10.0 mi WNW 12.7 mph 25.3 mph N/A   Clear
1:51 PM 68.0 °F 46.0 °F 45% 29.67 in 10.0 mi WNW 16.1 mph 20.7 mph N/A   Clear
2:51 PM 68.0 °F 45.0 °F 43% 29.67 in 10.0 mi West 13.8 mph 20.7 mph N/A   Clear
3:51 PM 69.1 °F 45.0 °F 42% 29.66 in 10.0 mi WNW 9.2 mph - N/A   Clear
4:51 PM 70.0 °F 46.0 °F 42% 29.66 in 10.0 mi WNW 9.2 mph - N/A   Clear
5:51 PM 70.0 °F 46.0 °F 42% 29.64 in 10.0 mi NW 9.2 mph - N/A   Partly Cloudy
6:51 PM 69.1 °F 44.1 °F 40% 29.65 in 10.0 mi NW 3.5 mph - N/A   Clear
7:51 PM 68.0 °F 46.0 °F 45% 29.64 in 10.0 mi Calm Calm - N/A   Clear
8:51 PM 57.9 °F 48.9 °F 72% 29.66 in 10.0 mi SSW 8.1 mph - N/A   Partly Cloudy
9:51 PM 55.9 °F 48.0 °F 75% 29.68 in 10.0 mi East 3.5 mph - N/A   Clear
10:51 PM 55.9 °F 48.9 °F 77% 29.68 in 10.0 mi Calm Calm - N/A   Clear
11:51 PM 55.0 °F 48.9 °F 80% 29.69 in 10.0 mi ESE 4.6 mph - N/A   Partly Cloudy